Burlington, IA

6:47 PM CDT on April 23, 2017 (GMT -0500)
Burlington Regional

Weather History for KBRL - April, 2013

Change the Weather History Date:

Wednesday, April 10, 2013

  Actual Average Record
Temperature  
Mean Temperature 47 °F 52 °F  
Max Temperature 51 °F 63 °F 93 °F (1930)
Min Temperature 43 °F 41 °F 20 °F (1960)
Degree Days  
Heating Degree Days 18 14  
Month to date heating degree days 156 152  
Since 1 July heating degree days 5482 5258  
Cooling Degree Days 0 0  
Month to date cooling degree days 0 0  
Year to date cooling degree days 0 2  
Moisture  
Dew Point 43 °F    
Average Humidity 93    
Maximum Humidity 100    
Minimum Humidity 86    
Precipitation  
Precipitation 1.13 in 0.12 in 1.35 in (1954)
Month to date precipitation 1.82 1.05  
Year to date precipitation 7.74 6.70  
Sea Level Pressure  
Sea Level Pressure 29.80 in    
Wind  
Wind Speed 12 mph (NE)    
Max Wind Speed 29 mph    
Max Gust Speed 38 mph    
Visibility 7 miles    
Events Rain , Thunderstorm    
T = Trace of Precipitation, MM = Missing Value Source: NWS Daily Summary

Daily Weather History Graph

Daily Weather History Graph

Search for Another Location

Airport or City:

Trip Planner

Search our weather history database for the weather conditions in past years. The results will help you decide how hot, cold, wet, or windy it might be!

Date:

Astronomy

Apr. 10, 2013 Rise Set
Actual Time 6:33 AM CDT 7:39 PM CDT
Civil Twilight 6:04 AM CDT 8:07 PM CDT
Nautical Twilight 5:31 AM CDT 8:40 PM CDT
Astronomical Twilight 4:56 AM CDT 9:16 PM CDT
Moon 6:29 AM CDT (4/10) 8:15 PM CDT (4/10)
Length of Visible Light 14h 02m
Length of Day
13h 06m
New Moon, 0% of the Moon is Illuminated
Apr 10
New Moon
Apr 18
First Quarter
Apr 25
Full
May 2
Last Quarter
May 9
New

Hourly Weather History & Observations

Time (CDT) Temp. Windchill Dew Point Humidity Pressure Visibility Wind Dir Wind Speed Gust Speed Precip Events Conditions
12:53 AM 51.1 °F - 48.0 °F 89% 29.79 in 8.0 mi NE 12.7 mph - N/A   Scattered Clouds
1:53 AM 50.0 °F - 46.9 °F 89% 29.76 in 8.0 mi ENE 13.8 mph 20.7 mph N/A   Clear
2:53 AM 50.0 °F - 46.0 °F 86% 29.75 in 9.0 mi ENE 12.7 mph - N/A   Mostly Cloudy
3:39 AM 50.0 °F - 46.4 °F 87% 29.79 in 8.0 mi North 16.1 mph 24.2 mph N/A   Overcast
3:51 AM 48.2 °F - 44.6 °F 87% 29.80 in 8.0 mi NNW 16.1 mph 23.0 mph N/A   Overcast
3:53 AM 48.0 °F - 45.0 °F 89% 29.80 in 8.0 mi NNW 17.3 mph 23.0 mph N/A   Overcast
4:41 AM 46.4 °F 40.4 °F 42.8 °F 87% 29.81 in 8.0 mi North 13.8 mph 26.5 mph 0.00 in Rain , Thunderstorm Light Thunderstorms and Rain
4:53 AM 46.0 °F 38.3 °F 43.0 °F 89% 29.87 in 6.0 mi NNW 20.7 mph 26.5 mph 0.03 in Rain , Thunderstorm Thunderstorms and Rain
5:18 AM 44.6 °F 35.7 °F 41.0 °F 87% 29.82 in 10.0 mi NE 24.2 mph 29.9 mph 0.01 in Rain Light Rain
5:30 AM 44.6 °F 35.5 °F 39.2 °F 81% 29.81 in 10.0 mi NE 25.3 mph 32.2 mph 0.01 in   Overcast
5:53 AM 43.0 °F 35.4 °F 39.9 °F 89% 29.81 in 10.0 mi NE 16.1 mph 27.6 mph 0.01 in   Scattered Clouds
6:53 AM 43.0 °F 34.8 °F 39.9 °F 89% 29.80 in 10.0 mi ENE 18.4 mph 23.0 mph N/A   Clear
7:37 AM 42.8 °F 36.6 °F 39.2 °F 87% 29.85 in 10.0 mi East 11.5 mph 19.6 mph N/A Thunderstorm Mostly Cloudy
7:53 AM 43.0 °F 40.3 °F 39.9 °F 89% 29.94 in 4.0 mi North 4.6 mph - 0.03 in Rain , Thunderstorm Thunderstorms and Rain
8:06 AM 42.8 °F 40.1 °F 41.0 °F 93% 29.94 in 2.5 mi North 4.6 mph - 0.05 in Rain , Thunderstorm Thunderstorms and Rain
8:13 AM 42.8 °F 38.6 °F 41.0 °F 93% 29.89 in 3.0 mi ENE 6.9 mph - 0.06 in Rain , Thunderstorm Rain
8:23 AM 42.8 °F 34.3 °F 41.0 °F 93% 29.80 in 7.0 mi NE 19.6 mph - 0.06 in Rain Light Rain
8:37 AM 42.8 °F 39.3 °F 42.8 °F 100% 29.85 in 10.0 mi East 5.8 mph - 0.07 in Rain Light Rain
8:53 AM 44.1 °F 38.6 °F 42.1 °F 93% 29.85 in 10.0 mi ENE 10.4 mph - 0.07 in   Mostly Cloudy
9:03 AM 44.6 °F 40.7 °F 42.8 °F 93% 29.83 in 10.0 mi ENE 6.9 mph 16.1 mph N/A   Mostly Cloudy
9:53 AM 45.0 °F 40.1 °F 43.0 °F 93% 29.84 in 10.0 mi ESE 9.2 mph - N/A   Overcast
10:53 AM 48.0 °F - 45.0 °F 89% 29.83 in 10.0 mi NE 10.4 mph - N/A   Overcast
11:53 AM 48.0 °F - 46.0 °F 93% 29.93 in 2.0 mi Calm Calm - 0.04 in Rain Rain
12:08 PM 48.2 °F - 46.4 °F 93% 29.90 in 4.0 mi North 9.2 mph - 0.02 in Rain Light Rain
12:35 PM 48.2 °F - 46.4 °F 93% 29.82 in 8.0 mi North 11.5 mph 25.3 mph 0.04 in Rain Light Rain
12:53 PM 46.9 °F - 46.0 °F 97% 29.92 in 10.0 mi SW 10.4 mph - 0.04 in   Overcast
1:01 PM 48.2 °F - 46.4 °F 93% 29.90 in 8.0 mi NW 6.9 mph - 0.01 in Rain Light Rain
1:53 PM 46.9 °F - 45.0 °F 93% 29.88 in 8.0 mi NE 13.8 mph - 0.06 in Rain Light Rain
2:53 PM 45.0 °F 37.1 °F 43.0 °F 93% 29.80 in 10.0 mi NE 19.6 mph - 0.04 in Rain Light Rain
3:53 PM 45.0 °F 39.3 °F 43.0 °F 93% 29.83 in 10.0 mi NE 11.5 mph - 0.00 in   Overcast
4:53 PM 44.1 °F 35.7 °F 43.0 °F 96% 29.72 in 9.0 mi NE 20.7 mph 27.6 mph 0.01 in Rain Light Rain
5:53 PM 44.1 °F 37.4 °F 24.1 °F 45% 29.75 in 10.0 mi NE 13.8 mph 25.3 mph 0.00 in Rain Light Rain
6:44 PM 44.6 °F 38.8 °F 41.0 °F 87% 29.75 in 3.0 mi NE 11.5 mph - 0.09 in Rain , Thunderstorm Thunderstorms and Rain
6:53 PM 44.1 °F 39.5 °F 42.1 °F 93% 29.78 in 3.0 mi ENE 8.1 mph - 0.14 in Rain Rain
7:12 PM 44.6 °F 36.6 °F 42.8 °F 93% 29.70 in 4.0 mi ENE 19.6 mph 23.0 mph 0.08 in Rain Rain
7:31 PM 44.6 °F 38.1 °F 42.8 °F 93% 29.72 in 5.0 mi ENE 13.8 mph 24.2 mph 0.13 in Rain Rain
7:53 PM 45.0 °F 37.9 °F 44.1 °F 97% 29.73 in 8.0 mi ENE 16.1 mph 23.0 mph 0.18 in Rain Light Rain
8:53 PM 44.1 °F 40.1 °F 44.1 °F 100% 29.76 in 4.0 mi NE 6.9 mph - 0.19 in Rain Rain
9:09 PM 44.6 °F - 44.6 °F 100% 29.77 in 4.0 mi Calm Calm - 0.06 in Rain Rain
9:15 PM 44.6 °F 43.1 °F 44.6 °F 100% 29.78 in 4.0 mi North 3.5 mph - 0.08 in Rain Rain
9:27 PM 44.6 °F 39.2 °F 44.6 °F 100% 29.78 in 4.0 mi NNE 10.4 mph - 0.12 in Rain , Thunderstorm Thunderstorms and Rain
9:42 PM 44.6 °F 38.8 °F 44.6 °F 100% 29.76 in 4.0 mi NNE 11.5 mph - 0.18 in Rain Rain
9:53 PM 44.1 °F 37.7 °F 44.1 °F 100% 29.75 in 3.0 mi NE 12.7 mph - 0.22 in Rain Rain
10:01 PM 44.6 °F 37.4 °F 44.6 °F 100% 29.72 in 3.0 mi ENE 16.1 mph 20.7 mph 0.03 in Rain Heavy Rain
10:09 PM 44.6 °F 36.4 °F 44.6 °F 100% 29.69 in 3.0 mi ENE 20.7 mph 25.3 mph 0.06 in Rain Rain
10:53 PM 43.0 °F 37.2 °F 43.0 °F 100% 29.68 in 10.0 mi ENE 10.4 mph 21.9 mph 0.07 in   Overcast
11:06 PM 42.8 °F 35.8 °F 42.8 °F 100% 29.67 in 10.0 mi ENE 13.8 mph - N/A   Overcast
11:53 PM 44.1 °F 38.6 °F 44.1 °F 100% 29.69 in 10.0 mi NE 10.4 mph - N/A   Overcast